User: anonymous   Login
Location: Pilipovskiye Korichintsy
(49.1833°N, 27.4667°E)
Time: 22:01:32
(UTC+00:00)
Language:

ERS-2 - Orbit

View from above orbital plane
View from above orbital plane
View from above satellite
View from above satellite

Ground track
Ground track

The orbit data is extracted from the following two-line orbital elements,

1 23560U 95021A   20263.49623553 +.00000458 +00000-0 +23113-4 0  9994
2 23560 098.5521 069.9262 0002991 191.0226 169.0943 15.23292298356430
Epoch (UTC): 19 September 2020 11:54:34
Eccentricity: 0.0002991
inclination: 98.5521°
perigee height: 494 km
apogee height: 498 km
right ascension of ascending node: 69.9262°
argument of perigee: 191.0226°
revolutions per day: 15.23292298
mean anomaly at epoch: 169.0943°
orbit number at epoch: 35643

The dashed part of the orbit path shows where the satellite is in the earth's shadow,  

DLR